McCook, NE

7:47 AM CST on December 13, 2017 (GMT -0600)
McCook Municipal

Weather History for KMCK - May, 2012

Change the Weather History Date:

Wednesday, May 2, 2012

  Actual Average Record
Temperature  
Mean Temperature 65 °F 55 °F  
Max Temperature 86 °F 70 °F 96 °F (1959)
Min Temperature 43 °F 41 °F 24 °F (1989)
Growing Degree Days 14 (Base 50)    
Moisture  
Dew Point 44 °F    
Average Humidity 51    
Maximum Humidity 93    
Minimum Humidity 19    
Precipitation  
Precipitation 0.00 in 0.10 in 1.32 in (1954)
Month to date precipitation 0.00 0.19  
Year to date precipitation 3.07 4.99  
Sea Level Pressure  
Sea Level Pressure 29.68 in    
Wind  
Wind Speed 4 mph (South)    
Max Wind Speed 8 mph    
Max Gust Speed -    
Visibility 10 miles    
Events      
T = Trace of Precipitation, MM = Missing Value Source: NWS Daily Summary

Daily Weather History Graph

Daily Weather History Graph

Search for Another Location

Airport or City:

Trip Planner

Search our weather history database for the weather conditions in past years. The results will help you decide how hot, cold, wet, or windy it might be!

Date:

Astronomy

May. 02, 2012 Rise Set
Actual Time 6:40 AM CDT 8:39 PM CDT
Civil Twilight 6:10 AM CDT 9:08 PM CDT
Nautical Twilight 5:34 AM CDT 9:44 PM CDT
Astronomical Twilight 4:55 AM CDT 10:24 PM CDT
Moon 4:53 PM CDT (5/2) 4:11 AM CDT (5/2)
Length of Visible Light 14h 58m
Length of Day
13h 59m
Waxing Gibbous, 83% of the Moon is Illuminated
May 2
Waxing Gibbous
May 5
Full
May 12
Last Quarter
May 20
New
May 28
First Quarter

Hourly Weather History & Observations

Time (CDT) Temp. Windchill Dew Point Humidity Pressure Visibility Wind Dir Wind Speed Gust Speed Precip Events Conditions
12:53 AM 59.0 °F - 55.9 °F 90% 29.64 in 7.0 mi WNW 5.8 mph - N/A   Clear
1:53 AM 57.0 °F - 53.1 °F 87% 29.65 in 10.0 mi Calm Calm - N/A   Clear
2:53 AM 55.0 °F - 48.9 °F 80% 29.64 in 10.0 mi South 3.5 mph - N/A   Clear
3:53 AM 52.0 °F - 46.0 °F 80% 29.65 in 10.0 mi WNW 4.6 mph - N/A   Clear
4:53 AM 46.9 °F - 45.0 °F 93% 29.67 in 10.0 mi WSW 6.9 mph - N/A   Clear
5:53 AM 46.4 °F 42.4 °F 44.6 °F 93% 29.72 in 10.0 mi WSW 8.1 mph - N/A   Clear
6:53 AM 45.0 °F 41.8 °F 42.1 °F 90% 29.69 in 10.0 mi WNW 5.8 mph - N/A   Clear
7:53 AM 50.0 °F - 45.0 °F 83% 29.70 in 10.0 mi SW 5.8 mph - N/A   Clear
8:53 AM 55.9 °F - 46.0 °F 69% 29.72 in 10.0 mi Calm Calm - N/A   Clear
9:53 AM 66.9 °F - 44.1 °F 44% 29.71 in 10.0 mi ENE 6.9 mph - N/A   Clear
10:53 AM 73.9 °F - 42.1 °F 32% 29.72 in 10.0 mi NNW 3.5 mph - N/A   Clear
11:53 AM 79.0 °F - 39.0 °F 24% 29.71 in 10.0 mi Variable 4.6 mph - N/A   Clear
12:53 PM 81.0 °F - 37.9 °F 21% 29.70 in 10.0 mi Calm Calm - N/A   Clear
1:53 PM 82.9 °F - 37.0 °F 19% 29.68 in 10.0 mi Variable 3.5 mph - N/A   Clear
2:53 PM 84.9 °F - 39.9 °F 20% 29.68 in 10.0 mi Variable 5.8 mph - N/A   Clear
3:53 PM 84.9 °F - 39.0 °F 20% 29.66 in 10.0 mi South 6.9 mph - N/A   Clear
4:53 PM 84.9 °F - 39.9 °F 20% 29.65 in 10.0 mi ESE 6.9 mph - N/A   Clear
5:53 PM 84.9 °F - 39.9 °F 20% 29.65 in 10.0 mi ESE 5.8 mph - N/A   Clear
6:53 PM 84.0 °F - 41.0 °F 22% 29.65 in 10.0 mi ESE 5.8 mph - N/A   Clear
7:53 PM 79.0 °F - 43.0 °F 28% 29.65 in 10.0 mi East 3.5 mph - N/A   Clear
8:53 PM 72.0 °F - 45.0 °F 38% 29.67 in 10.0 mi Calm Calm - N/A   Clear
9:53 PM 69.1 °F - 45.0 °F 42% 29.67 in 10.0 mi ENE 4.6 mph - N/A   Clear
10:53 PM 64.0 °F - 45.0 °F 50% 29.68 in 10.0 mi North 4.6 mph - N/A   Clear
11:53 PM 62.1 °F - 48.0 °F 60% 29.68 in 10.0 mi Calm Calm - N/A   Clear